Theta_e
347 353 355 356 356 355 356 355 352 352 352 351 351 349 349 350 350 349 347 348 349 347 349 351 351 351 354 355 352 352 354 355 355 356 353 350 353 355 356 358 355 351 352 353 353 353 354 355 356 355 355 354 353 353 352 353 353 353 354 353 351 352 352 349 348 346 346 348 348 348 350 349 349 350 348 346 346 345 343 343 344 343 342 340 339
348 352 356 357 357 357 357 354 351 352 353 352 351 350 349 351 352 351 350 349 349 348 349 351 351 351 353 355 354 352 353 355 355 355 355 352 352 354 356 357 355 351 352 352 350 351 355 356 354 353 355 355 353 353 354 353 353 353 355 354 352 353 354 350 347 347 347 348 348 349 350 349 348 349 347 344 343 341 340 340 339 338 337 336 338
346 349 354 356 357 358 357 355 353 353 352 352 351 351 350 350 351 352 350 348 349 350 350 352 351 351 351 354 355 353 353 355 354 352 354 353 352 354 355 357 356 352 351 351 350 349 352 354 353 351 353 354 352 353 355 353 352 353 353 352 352 353 353 350 348 349 349 348 348 348 349 349 348 348 346 343 341 339 337 335 334 337 337 336 340
347 347 352 355 356 357 356 356 355 353 352 351 351 350 350 350 350 351 350 349 350 350 351 352 352 351 353 355 356 355 355 355 353 350 352 352 351 354 355 357 359 356 352 352 352 350 350 352 353 351 352 352 351 353 354 353 352 352 352 352 352 352 350 350 350 350 350 348 348 348 348 347 347 346 343 341 342 340 338 336 336 338 336 336 340
347 347 351 353 355 356 356 357 356 353 351 352 351 350 350 350 350 350 350 350 350 350 350 352 352 352 354 355 355 356 356 354 352 350 351 353 352 354 356 357 357 356 353 352 352 351 350 351 352 351 352 352 351 351 352 352 351 351 352 353 353 352 351 351 350 348 348 348 348 348 346 346 347 344 341 341 341 340 339 338 339 338 336 336 340
348 349 351 352 354 356 356 357 357 354 352 351 350 350 350 350 350 350 350 350 350 350 350 350 352 353 353 353 353 355 356 355 352 349 350 354 354 353 354 355 355 353 352 352 351 351 352 352 351 351 352 353 352 351 351 352 351 350 351 351 351 351 350 350 348 347 347 346 347 347 346 346 344 342 340 340 340 340 339 339 339 338 338 338 339
349 349 351 351 352 355 355 356 356 354 351 351 351 350 350 350 350 349 350 350 350 350 350 351 352 352 352 353 353 355 355 355 353 351 349 351 353 352 351 353 353 352 350 351 350 350 351 353 352 352 352 352 352 352 351 350 349 349 351 351 349 349 349 348 347 347 348 347 346 345 345 344 341 340 341 340 340 340 339 338 338 338 338 337 338
349 349 350 351 351 353 354 355 355 354 352 351 351 351 351 350 350 350 350 350 350 350 350 351 351 351 352 353 352 353 355 354 353 353 350 349 350 352 352 352 352 350 350 350 349 349 350 350 351 351 351 352 352 351 350 349 348 349 351 350 348 349 349 349 349 349 347 345 343 343 344 343 341 340 341 340 339 340 339 338 338 338 338 337 338
350 349 349 350 351 352 354 355 355 355 355 353 352 351 351 350 350 350 350 350 350 350 350 351 352 351 352 352 351 352 353 354 353 354 352 350 350 352 352 351 351 351 351 349 349 350 350 349 350 350 351 352 352 350 349 349 348 349 351 349 347 347 348 349 349 345 341 339 341 343 344 344 341 340 340 340 339 338 338 338 338 338 338 338 339
350 350 349 349 350 352 353 354 355 355 356 356 355 353 351 350 350 350 351 350 350 350 351 352 353 352 352 352 352 352 353 353 353 353 353 351 349 350 352 352 351 351 351 349 348 348 349 349 350 351 351 352 351 349 348 348 347 348 350 349 347 347 349 347 344 339 337 340 343 344 344 343 341 340 340 340 338 338 338 338 338 337 338 338 339
348 349 349 349 349 350 352 352 353 354 355 355 356 355 353 353 353 352 351 350 350 351 351 352 353 353 353 353 352 353 353 352 351 351 351 350 348 349 351 351 351 351 350 349 348 347 348 349 350 351 350 350 349 347 346 346 347 347 347 347 347 347 345 342 341 340 342 344 345 344 342 341 341 340 340 339 337 338 338 337 337 337 337 337 337
347 347 348 349 349 350 350 351 351 352 353 355 356 356 354 354 354 354 352 351 351 351 352 353 353 353 353 352 352 353 353 352 351 350 350 348 348 349 350 351 351 350 349 349 347 347 349 350 352 351 350 349 348 347 347 347 348 347 345 343 342 340 338 337 341 344 345 345 343 341 340 339 339 340 338 337 336 336 336 336 337 336 337 337 336
346 346 347 348 348 349 350 350 351 351 353 354 355 355 355 354 354 354 354 353 352 352 353 353 353 354 353 352 352 353 353 352 350 350 350 347 348 349 349 349 349 349 348 348 347 348 351 352 352 351 350 349 348 347 347 347 347 345 341 337 334 331 331 334 339 342 343 342 341 340 340 339 339 339 337 335 334 335 335 335 336 336 336 335 334
345 346 346 347 348 349 349 349 350 350 352 353 354 354 354 354 354 354 354 354 354 353 353 354 355 355 354 353 352 351 353 352 350 350 351 350 350 350 350 349 348 347 348 348 347 350 353 352 350 350 349 348 347 347 347 347 345 342 339 337 335 330 329 330 333 336 338 339 339 339 339 338 337 337 335 334 334 335 334 334 335 335 334 333 332
346 346 345 346 348 349 349 349 349 350 351 351 352 352 352 352 353 353 354 354 354 354 353 354 355 355 355 354 352 351 352 352 350 351 352 352 352 351 351 350 349 349 348 348 349 351 352 350 349 349 347 346 346 346 344 343 342 341 340 338 335 332 330 328 330 332 334 335 337 336 336 335 334 333 330 330 331 330 330 331 332 332 332 332 332
346 345 345 346 348 350 349 349 349 349 350 350 351 351 351 351 351 353 354 354 354 354 353 354 355 354 355 354 353 350 350 350 350 351 352 352 351 350 350 350 349 349 350 351 351 351 350 349 348 348 346 346 346 343 338 337 339 339 338 335 331 332 333 330 330 332 332 333 334 333 332 332 330 328 326 324 321 319 323 330 330 329 330 331 331
345 345 346 346 347 349 349 349 349 349 350 350 350 350 351 351 351 353 355 355 355 354 353 353 352 353 353 354 353 350 349 349 349 350 352 351 349 348 349 350 350 351 352 352 352 350 350 349 347 346 345 344 341 337 332 334 338 338 336 333 331 334 335 332 331 332 331 331 331 330 330 329 326 325 321 317 313 311 320 329 329 328 329 329 329
345 346 346 346 347 348 349 349 350 349 350 350 349 349 350 351 351 352 353 354 353 352 352 351 351 352 353 353 353 352 350 350 349 351 352 351 348 348 350 351 352 352 351 351 351 349 349 347 345 344 342 338 336 333 331 335 339 338 336 334 333 333 333 331 331 331 329 329 328 327 326 324 321 318 313 310 309 307 314 322 324 326 328 326 326
345 345 345 346 346 347 349 350 350 350 350 350 350 349 349 349 350 351 352 352 352 351 351 351 352 353 353 353 353 353 352 351 350 351 351 350 348 349 351 351 351 350 350 351 350 349 347 346 343 340 338 335 334 332 331 335 338 337 335 335 333 331 329 328 329 329 328 327 325 323 321 318 315 312 308 307 307 306 307 312 315 321 324 322 320
344 344 345 346 347 347 348 349 351 351 350 350 350 351 351 350 349 350 351 352 351 351 352 352 352 353 353 353 353 352 352 352 351 351 351 349 348 350 351 351 350 350 349 349 348 347 345 343 340 337 335 334 333 331 331 334 336 336 335 334 333 331 329 328 327 327 325 323 320 317 314 311 310 309 307 306 306 306 306 306 307 313 318 320 319
345 345 346 347 347 347 348 349 350 351 351 350 350 350 351 350 350 351 352 352 352 352 353 353 353 353 352 353 353 352 353 352 350 350 350 348 348 350 351 350 350 350 349 347 347 346 343 339 337 336 334 333 332 331 332 333 334 334 333 332 331 329 328 326 324 321 319 317 316 315 313 313 312 311 309 307 306 307 307 306 306 307 310 314 316
346 346 347 348 347 348 348 349 349 350 351 351 350 349 349 350 352 353 352 352 352 352 352 352 352 352 353 353 353 353 352 351 350 351 350 349 350 351 351 350 350 350 348 346 346 343 340 338 336 334 333 332 332 332 332 332 332 331 328 327 327 326 324 321 318 316 317 318 318 317 317 316 316 314 311 309 307 306 306 306 306 305 305 306 307
346 346 347 348 348 348 348 349 349 350 351 351 351 350 349 350 351 352 352 352 351 350 349 349 350 351 351 351 351 351 351 351 351 351 351 350 351 351 351 350 349 349 348 346 344 341 339 336 335 333 332 332 333 333 332 331 329 324 320 318 318 317 316 313 312 313 316 316 314 314 314 316 316 315 312 310 307 306 305 305 305 305 304 304 304
345 346 346 348 348 347 349 349 350 350 350 350 351 350 349 349 350 352 351 350 348 347 347 347 348 348 349 350 350 350 350 350 350 350 350 351 351 351 350 350 349 347 346 345 343 340 337 336 334 333 332 333 333 332 331 328 322 317 313 311 310 310 309 309 309 309 310 311 311 311 312 313 313 311 309 307 305 304 304 304 305 304 305 306 306
344 346 347 348 348 347 349 349 349 350 349 349 350 350 349 349 350 350 350 347 346 347 347 346 347 348 349 350 349 348 348 348 348 349 350 350 350 351 350 348 347 346 344 342 340 338 336 335 334 333 333 332 331 330 328 322 315 311 309 308 308 308 308 309 308 308 310 312 311 311 309 307 307 307 305 304 306 307 307 308 310 310 310 311 311
344 345 346 348 348 347 348 349 349 350 349 349 350 350 349 349 348 348 347 346 346 347 347 346 347 348 349 350 348 346 345 346 348 348 348 350 350 350 349 347 346 343 341 339 338 337 336 334 333 332 332 330 329 328 324 316 309 308 308 309 310 310 309 308 308 309 311 312 311 309 308 306 305 305 304 305 309 310 310 312 313 314 313 313 314
345 345 346 347 347 346 347 348 348 349 349 348 349 350 350 349 348 348 348 347 347 348 347 348 348 348 349 349 347 345 345 347 347 346 347 349 350 348 347 345 342 340 339 338 337 336 334 333 332 332 330 329 328 327 320 311 308 309 310 310 310 309 308 308 308 308 310 311 310 310 310 308 307 307 308 309 311 310 310 312 314 314 314 313 314
345 345 346 346 346 346 347 348 348 348 348 348 348 349 349 348 348 348 349 349 349 349 349 349 349 348 347 347 346 345 345 346 345 344 346 349 348 346 343 341 339 339 339 338 337 335 333 332 331 330 329 328 326 322 314 309 310 311 310 310 309 307 307 307 306 306 308 310 311 311 310 311 312 313 313 313 313 313 312 313 313 313 314 313 314
345 345 345 346 346 347 347 347 346 346 347 348 348 348 348 348 348 349 349 349 349 349 349 349 348 346 345 345 345 345 345 345 344 343 346 348 345 342 341 339 339 340 339 338 337 334 333 332 330 329 328 326 323 319 313 311 312 312 310 309 308 308 310 311 309 307 309 310 311 312 313 314 314 314 315 315 315 314 314 313 313 313 313 313 314
345 345 346 346 345 345 346 346 346 345 345 346 347 346 347 348 348 348 349 349 348 348 348 348 348 346 345 345 345 345 346 346 344 344 346 346 343 341 340 340 341 340 339 337 336 334 333 331 329 328 327 323 321 319 315 314 315 313 311 311 312 313 314 314 313 312 312 313 313 313 314 315 314 315 315 315 315 315 315 314 314 314 314 314 314
345 346 346 345 345 345 344 345 346 346 345 346 346 346 347 347 347 348 348 348 347 347 347 347 347 346 346 346 346 346 347 346 345 346 346 344 341 341 341 341 341 340 337 336 335 333 333 331 328 326 324 322 320 319 316 315 316 315 314 314 315 314 314 314 314 313 313 314 314 314 314 315 315 315 315 314 314 314 315 315 315 315 314 314 314
345 346 345 346 346 345 343 344 345 346 346 346 346 346 347 347 347 347 347 347 347 347 347 347 347 346 346 347 346 346 347 346 345 346 346 342 341 342 341 341 341 339 337 336 335 333 332 330 326 324 322 321 320 318 317 316 315 315 316 316 314 314 315 314 313 314 315 314 315 315 314 314 315 314 314 315 314 314 315 315 315 314 314 314 313
344 345 345 345 345 345 344 344 344 346 346 346 346 346 346 347 347 347 346 346 347 347 347 347 346 346 347 347 346 347 348 346 345 346 345 342 341 342 341 340 340 338 336 335 334 332 330 327 325 323 321 320 319 318 316 316 315 316 316 315 315 315 313 310 310 314 315 313 314 315 314 314 315 314 314 315 314 314 314 314 313 314 314 314 313
343 344 345 345 345 344 344 344 344 346 347 346 346 346 346 346 347 346 346 346 346 346 346 346 344 345 346 346 347 348 346 345 345 346 344 342 342 341 341 339 338 337 336 334 333 331 328 325 323 322 320 319 319 317 316 316 316 316 316 315 315 314 310 308 311 315 315 314 315 316 315 314 314 314 314 315 314 314 313 313 313 313 313 313 312
342 343 344 344 344 344 343 343 343 345 346 346 346 346 346 346 346 345 346 346 346 345 344 344 344 344 345 345 346 346 345 344 345 345 344 342 342 341 339 337 335 334 333 332 330 328 326 324 323 321 320 320 318 317 316 316 316 316 316 316 315 313 311 312 314 315 314 315 316 315 313 313 314 314 314 314 314 313 313 313 313 312 311 311 311
342 343 344 344 344 344 342 342 343 344 345 346 346 346 346 346 346 345 346 346 346 345 345 344 344 344 344 344 345 345 344 344 344 343 342 341 340 339 337 335 333 332 330 328 327 326 325 323 322 321 320 319 318 317 317 316 316 316 316 315 315 314 315 316 316 315 314 315 315 314 313 313 314 314 313 313 313 312 311 311 311 310 309 309 307
341 342 343 344 344 344 343 342 342 343 345 345 345 346 346 345 344 345 345 345 345 345 344 344 344 343 343 344 345 344 344 344 342 341 340 339 338 337 335 333 331 329 328 326 326 325 324 322 321 321 320 318 317 317 317 316 316 316 315 315 315 316 316 316 314 312 313 315 315 314 314 314 314 313 312 312 311 310 310 309 308 308 307 306 305
342 343 344 344 343 344 342 341 342 343 344 345 345 346 346 344 343 343 344 344 345 344 343 343 343 343 342 343 343 343 342 341 340 339 338 337 336 335 334 332 330 328 327 327 326 324 322 321 321 320 319 317 317 316 316 315 315 315 314 315 316 315 314 313 312 310 312 314 315 315 314 313 313 312 311 309 309 308 308 307 306 306 307 307 307
342 343 344 344 343 342 342 341 342 343 344 344 344 344 344 344 343 343 343 343 343 342 342 342 342 343 342 341 341 340 340 339 338 337 336 334 333 333 332 330 329 327 327 326 325 323 321 320 320 318 318 317 316 315 314 314 315 315 315 316 316 315 314 315 315 314 314 315 314 313 312 311 310 309 307 306 306 306 305 304 305 306 306 307 308
342 343 345 344 342 341 341 342 343 343 343 343 343 342 342 343 342 342 342 342 340 339 339 341 342 342 341 340 339 339 338 337 337 335 334 332 332 331 330 328 327 326 325 325 323 321 320 319 318 317 316 315 314 314 315 315 315 315 315 316 316 316 315 315 315 314 314 313 312 311 310 309 308 306 305 304 304 302 301 302 304 305 305 306 307
341 342 344 344 342 341 342 342 343 344 343 342 341 341 341 341 341 340 340 341 339 338 339 340 341 340 339 338 338 337 337 336 335 333 332 331 329 329 328 327 327 325 323 321 320 319 318 318 316 313 311 311 312 314 315 315 315 315 315 315 315 315 315 315 313 312 311 311 310 309 308 307 306 303 302 302 300 300 302 304 305 305 305 306 306
341 342 342 343 342 341 341 342 344 344 343 341 340 339 339 340 340 340 340 340 338 338 339 340 339 338 337 337 337 336 335 333 332 330 329 329 327 327 327 325 323 321 320 319 319 318 316 314 311 309 309 309 310 312 313 314 315 315 316 315 315 314 314 314 312 310 309 308 308 307 306 305 303 301 300 299 300 302 304 305 305 304 304 305 305
341 342 342 343 343 342 341 341 342 342 342 340 339 338 339 339 339 339 339 338 338 339 340 338 337 336 336 335 334 332 331 330 329 328 327 326 326 325 324 322 321 320 320 319 317 314 311 309 308 309 310 311 311 312 314 314 314 315 315 315 314 314 313 312 311 309 308 307 307 306 305 303 301 299 299 300 300 303 304 305 303 303 303 304 304
342 341 341 342 342 342 342 342 341 341 341 340 338 338 338 338 337 338 338 338 338 339 339 338 337 335 333 331 329 328 327 327 326 326 325 325 325 324 323 322 321 319 317 314 312 310 309 309 310 311 312 311 311 312 313 313 313 313 313 313 312 311 311 310 309 307 307 306 306 305 304 301 299 299 299 299 300 302 303 303 303 302 303 303 304
342 341 342 342 342 341 342 342 341 341 340 339 337 336 336 336 336 335 335 335 336 336 335 335 333 330 328 326 325 325 325 326 325 325 325 325 323 322 320 318 315 312 311 310 310 310 311 312 312 312 312 312 312 312 312 312 311 311 311 311 311 309 308 307 307 307 306 307 306 304 301 299 299 299 299 300 301 301 302 302 302 302 302 303 304
342 342 342 342 341 341 340 340 340 340 339 337 336 334 333 333 333 333 332 332 332 330 328 326 325 325 325 325 325 325 325 325 324 323 321 319 317 315 313 311 310 310 311 311 312 312 312 312 313 313 312 312 312 312 311 310 310 309 309 309 309 308 307 306 306 306 306 306 304 301 299 299 298 298 299 300 301 301 301 301 302 302 303 303 303
341 341 340 340 340 339 338 338 337 337 335 334 333 332 331 330 330 330 328 327 325 323 322 322 323 323 324 324 323 321 320 319 317 316 314 313 311 311 310 310 311 311 312 312 312 313 313 313 313 313 313 312 312 311 310 309 308 308 307 307 307 306 306 306 306 306 306 304 302 300 299 298 298 298 299 300 301 302 302 302 302 302 302 302 302
340 339 339 338 337 335 334 333 333 332 331 330 329 328 327 326 326 325 324 323 322 321 321 321 321 319 318 317 315 315 314 313 312 312 311 310 310 310 311 311 312 312 312 313 313 313 313 312 312 313 313 313 312 311 310 309 308 307 307 306 306 306 306 306 306 306 305 302 300 299 298 298 298 299 300 301 302 302 302 302 302 302 302 302 302
337 336 335 334 333 330 329 328 328 327 326 326 325 324 323 322 322 322 321 321 320 320 318 316 315 314 313 312 311 311 311 312 311 311 311 311 311 311 311 311 311 311 311 311 311 311 312 312 312 312 312 312 312 311 310 309 307 306 306 306 306 306 306 306 306 305 303 300 299 298 298 298 299 300 301 302 302 302 301 301 301 301 301 301 301
331 331 330 329 328 327 325 324 323 323 322 322 321 320 319 318 318 318 317 316 316 315 314 313 313 313 312 311 311 311 311 311 311 311 311 311 311 310 310 309 309 309 310 310 310 311 313 313 313 313 313 312 312 311 310 308 307 306 305 305 306 306 306 306 306 304 301 299 299 298 298 299 300 301 301 301 302 302 301 300 301 301 301 301 301
326 326 326 325 324 323 323 322 322 321 320 319 318 317 316 316 316 315 315 314 314 314 314 313 313 313 313 312 312 311 311 311 311 310 310 310 309 309 309 309 310 310 311 312 313 314 314 314 314 313 312 312 311 310 309 307 306 306 305 305 305 306 306 306 305 302 300 299 298 298 298 300 300 300 301 301 301 300 299 299 300 301 301 301 301
Wind_Speed
14 15 16 16 19 20 21 27 34 35 31 29 29 29 31 32 30 27 28 27 26 27 26 24 24 23 21 21 22 23 23 23 22 22 24 24 21 19 18 19 21 20 18 18 17 16 16 16 17 15 13 13 12 11 11 10 10 12 13 14 14 14 16 18 19 21 19 16 14 11 9 10 8 6 7 8 7 8 8 6 7 7 7 8 9
14 14 14 14 16 17 21 29 34 32 29 28 28 28 29 30 28 27 28 27 25 27 27 26 25 23 23 23 23 23 23 24 25 23 23 23 22 21 19 20 23 22 19 19 19 18 16 17 19 16 14 14 14 12 11 11 11 12 12 13 13 13 15 16 18 19 17 15 11 8 8 8 6 6 8 7 7 7 7 7 7 7 8 6 5
14 14 14 14 15 16 21 28 32 31 30 29 28 27 27 28 28 28 29 27 25 27 28 27 27 26 26 25 23 23 24 25 27 26 24 23 23 21 20 20 22 23 22 20 20 20 19 19 21 19 16 17 16 13 13 13 13 13 14 14 14 15 15 15 15 15 14 13 9 6 6 6 5 7 7 6 5 5 6 7 7 7 7 5 4
13 13 14 15 14 17 21 26 29 29 29 29 28 27 27 28 29 30 29 27 26 27 28 27 27 27 26 26 24 24 25 26 27 27 25 25 24 23 21 20 20 21 22 21 20 20 21 21 22 22 20 19 17 14 15 17 16 14 14 14 15 16 15 13 12 12 11 9 7 6 6 6 5 5 4 4 4 4 5 6 6 6 5 4 4
14 12 13 15 15 17 20 22 26 27 27 28 28 27 27 28 29 29 27 26 26 28 29 27 26 26 27 28 28 27 26 27 28 27 25 25 24 23 21 21 21 22 23 22 21 22 23 23 23 23 21 18 18 17 17 19 19 16 14 14 14 13 12 10 11 11 9 7 6 7 8 5 3 4 3 3 3 4 5 5 5 5 4 3 3
15 12 13 15 15 16 18 21 23 24 26 26 26 27 27 28 29 28 26 26 26 28 30 27 25 26 28 30 30 29 28 27 27 27 26 25 25 25 24 23 24 24 22 22 23 23 22 22 23 23 21 19 18 18 18 19 20 16 14 14 13 11 10 10 10 9 8 7 6 6 5 3 3 5 5 3 2 3 4 4 4 5 4 2 2
15 13 13 14 15 15 18 21 22 23 25 25 24 25 26 27 28 28 27 27 27 29 31 29 25 25 27 29 30 29 28 27 26 27 28 27 27 28 27 26 25 25 23 22 24 23 22 21 22 22 22 20 19 18 19 20 18 14 13 14 12 10 10 9 8 7 6 5 4 4 4 4 4 4 4 4 3 4 4 3 3 5 4 2 2
16 15 13 14 16 17 18 20 22 22 21 22 22 23 25 26 28 29 29 29 28 28 30 30 28 26 26 28 29 29 29 28 26 27 28 29 29 28 27 27 27 26 24 23 23 24 24 24 23 23 22 20 19 19 18 18 15 12 12 12 10 9 8 7 6 6 5 4 4 4 4 4 4 3 3 4 4 5 5 4 3 4 4 4 3
16 16 15 15 16 16 17 19 20 20 19 20 22 23 25 25 26 27 28 29 28 27 28 28 28 27 27 28 29 29 29 27 26 26 28 29 31 30 29 29 28 27 25 23 22 22 23 24 23 22 21 20 19 17 16 16 14 11 11 11 9 8 7 6 5 5 5 5 5 5 4 4 6 5 4 5 5 4 5 4 4 4 4 5 4
18 17 17 16 16 16 16 18 18 18 19 20 21 22 24 24 25 26 27 28 27 25 25 26 26 27 28 28 29 29 29 28 27 27 27 29 32 32 30 29 28 27 26 24 22 22 22 23 22 21 20 19 18 15 15 15 13 11 11 10 8 6 6 6 5 5 5 4 5 5 4 4 6 5 4 4 5 4 4 4 4 4 5 5 5
20 20 19 18 18 17 16 17 17 18 18 20 21 21 21 21 23 25 27 28 27 25 24 25 27 28 28 28 28 29 30 29 28 28 27 28 32 32 31 30 30 28 26 24 24 24 22 22 22 21 20 18 15 14 13 12 11 11 12 11 9 8 7 7 6 5 4 4 4 5 5 6 6 5 4 4 4 4 4 4 4 4 4 5 6
22 21 21 20 19 18 17 17 17 18 18 20 21 21 20 20 20 22 25 27 26 24 24 26 28 28 27 27 27 29 30 29 29 29 28 28 31 32 31 31 31 31 28 25 25 24 22 21 20 18 16 15 13 12 12 12 12 12 11 11 10 10 10 8 7 5 4 5 5 5 5 6 5 4 4 4 3 3 4 4 4 4 4 5 6
22 22 21 20 20 19 18 17 17 17 18 19 21 21 21 21 21 21 23 25 24 23 24 27 27 27 27 27 27 28 29 30 30 29 27 28 30 30 31 32 32 32 30 27 25 23 21 19 17 15 14 13 13 12 12 11 12 11 10 10 11 11 10 10 10 8 6 4 4 5 6 5 4 5 6 4 3 3 3 4 4 3 4 6 7
20 20 21 20 19 18 18 18 18 17 17 18 20 21 22 21 21 21 23 24 23 22 24 26 26 26 26 26 26 27 28 30 30 28 26 27 28 30 30 30 30 31 31 28 25 22 19 18 17 15 15 14 14 13 11 10 9 8 8 8 7 8 9 11 11 12 10 7 5 6 8 7 5 5 5 2 2 3 4 4 4 4 3 6 7
18 18 19 18 18 18 17 18 19 19 18 18 19 20 21 20 20 22 23 24 22 22 24 24 24 25 25 24 24 26 28 29 29 27 25 26 28 29 28 28 28 28 27 25 23 21 20 19 17 16 15 15 15 13 11 10 8 8 8 7 6 6 8 9 9 9 9 6 5 6 7 6 5 5 4 2 2 3 4 4 5 5 4 6 5
18 17 18 16 15 16 16 17 18 18 18 18 18 19 19 20 20 21 22 23 23 23 23 22 22 24 24 23 24 26 28 29 27 25 25 26 28 28 26 26 27 25 23 22 22 20 20 19 17 16 16 16 14 13 11 9 8 8 8 7 6 5 5 6 6 7 6 5 4 5 5 5 5 5 5 5 4 4 3 3 5 5 4 5 5
18 17 17 15 13 14 15 16 17 17 16 17 18 18 19 19 19 19 20 22 23 23 23 22 23 24 25 24 24 26 28 29 27 26 26 26 27 27 25 23 23 22 22 23 22 21 19 18 17 17 16 15 13 12 11 10 9 9 7 5 5 4 4 5 5 6 6 5 5 5 4 4 4 5 6 7 7 5 2 1 3 4 3 4 4
17 17 17 16 14 13 13 15 17 18 17 17 17 17 18 20 19 20 22 23 24 23 23 23 24 24 25 25 25 26 28 29 27 26 25 26 27 27 25 23 23 25 26 24 22 21 19 18 17 16 15 13 12 12 12 10 9 9 8 6 4 3 4 5 4 4 4 4 3 3 3 4 5 6 7 7 6 4 1 2 2 2 2 2 3
16 17 18 17 16 14 13 14 16 18 18 18 17 17 20 21 21 22 24 25 24 23 22 22 22 22 23 24 24 25 27 28 28 25 24 26 27 26 25 26 28 29 28 25 23 21 20 19 18 15 13 12 13 13 12 11 9 8 7 6 5 5 6 4 2 2 3 3 2 3 4 5 6 7 7 6 6 4 3 3 3 1 0 2 3
15 16 16 15 16 15 13 14 15 17 18 18 18 18 19 21 22 23 24 24 22 20 19 19 20 21 22 23 24 25 27 28 27 25 25 28 29 28 29 31 31 29 28 27 25 24 22 20 18 15 13 13 14 13 12 12 10 8 7 8 8 7 7 6 4 4 4 3 3 3 4 5 5 6 6 6 5 5 4 4 4 2 1 1 2
16 16 14 14 15 14 13 13 14 16 17 17 18 18 17 19 21 21 22 21 19 19 19 19 19 19 20 22 24 25 25 26 26 25 26 29 31 31 32 33 31 28 27 27 26 25 23 21 19 17 15 14 14 13 12 12 11 9 9 10 9 8 7 5 5 4 3 2 1 1 2 2 3 3 5 5 5 4 4 3 2 2 2 1 1
17 16 15 15 15 14 13 12 12 14 15 16 17 17 16 17 19 19 19 18 18 18 19 18 18 18 18 20 21 22 23 24 25 25 26 29 32 34 34 32 30 28 27 27 27 25 23 21 19 18 16 14 14 12 11 10 8 7 8 8 7 7 7 6 5 4 4 4 4 4 4 3 3 2 3 4 4 3 2 2 2 2 2 0 1
17 16 14 15 16 15 12 10 9 12 13 14 16 17 16 16 18 19 19 18 19 19 18 18 17 16 17 18 19 19 21 23 24 22 24 29 34 34 32 31 30 29 28 28 27 25 23 21 19 18 16 14 13 11 9 7 6 5 6 7 7 8 8 7 7 8 7 6 5 4 4 4 3 1 1 2 3 3 4 5 5 5 5 5 4
17 16 13 13 14 13 10 8 9 10 11 12 16 17 16 16 18 19 18 19 19 18 17 18 18 16 16 16 17 19 20 22 23 21 25 34 37 33 29 29 30 29 28 27 26 24 22 20 19 18 16 14 11 9 7 6 5 6 7 8 8 8 8 7 7 7 6 5 4 3 3 3 3 2 1 2 4 6 7 7 7 8 8 8 7
17 15 12 12 12 11 8 7 8 9 9 11 15 17 17 16 17 18 19 19 18 16 16 18 18 17 15 15 16 17 17 18 20 22 29 37 36 30 27 26 25 24 26 26 24 22 20 19 19 17 14 12 10 8 7 6 6 7 8 8 8 8 7 7 7 6 6 5 4 4 4 4 3 3 3 4 6 7 8 7 7 8 8 7 7
16 14 11 11 11 9 8 7 6 7 8 9 13 16 17 16 17 19 20 20 18 17 16 17 17 16 14 14 15 14 13 15 18 24 35 40 35 28 26 24 22 23 25 24 22 21 20 19 18 17 13 11 8 6 6 6 7 8 9 9 9 9 8 8 8 8 8 7 6 6 5 4 4 4 6 7 6 5 5 5 4 5 6 5 5
16 14 11 10 9 9 8 7 5 6 7 7 10 14 14 14 16 19 20 19 17 16 16 16 14 11 10 11 11 10 12 15 19 31 43 43 34 30 29 28 27 26 26 24 23 22 21 20 18 15 13 10 7 5 5 8 9 10 10 11 10 10 9 9 9 10 10 8 7 7 6 5 5 5 7 6 4 4 4 4 3 4 5 6 7
15 15 11 8 6 7 8 7 5 6 7 6 8 11 12 11 12 15 17 16 14 13 13 12 10 9 10 11 11 10 12 16 23 37 44 38 34 34 33 31 30 29 28 27 26 23 22 21 18 14 12 10 8 7 7 10 12 11 11 11 10 10 9 9 9 10 10 9 8 7 5 5 4 3 2 1 3 4 4 4 5 5 6 7 8
13 14 12 8 5 5 5 5 4 5 7 9 10 12 13 12 11 11 13 13 12 11 10 11 12 12 13 13 13 12 14 17 26 38 40 36 36 37 35 34 32 30 28 26 25 25 23 20 17 14 12 11 10 9 9 11 13 12 11 10 10 9 9 8 8 9 9 8 7 5 4 3 2 0 1 3 4 5 5 6 6 6 7 8 8
11 12 11 8 6 4 4 3 3 3 6 9 10 11 13 14 13 11 11 11 11 11 11 12 13 13 13 13 14 15 15 18 28 37 39 37 36 35 34 33 31 29 27 24 23 24 23 19 17 15 13 12 11 11 11 12 12 11 11 10 9 9 8 8 7 8 7 6 5 4 3 2 1 1 2 4 4 5 6 8 7 7 8 9 9
9 10 9 8 6 4 3 2 1 1 4 8 8 9 11 13 14 12 10 9 8 8 9 10 12 12 12 13 14 14 14 18 30 37 37 36 34 32 32 30 27 26 25 23 22 22 21 19 19 17 14 12 12 12 12 12 12 12 11 10 9 9 8 8 7 7 5 5 4 2 1 1 2 2 3 4 5 5 6 7 8 8 9 9 10
8 7 7 7 6 4 3 2 0 3 5 7 8 10 11 12 13 12 11 9 8 8 8 8 10 11 11 12 14 15 14 20 31 36 33 32 32 31 29 27 25 24 22 21 21 22 21 20 20 17 13 13 12 12 12 12 12 11 11 10 9 8 7 8 8 6 4 3 3 1 1 1 2 4 4 5 6 7 7 8 9 9 10 11 11
7 7 6 6 7 5 4 3 3 3 3 4 7 10 11 12 13 13 12 10 9 10 10 9 9 10 10 11 13 14 15 21 28 32 31 31 31 28 26 25 24 22 21 21 21 21 20 19 17 15 13 13 12 12 12 12 11 11 10 10 9 8 8 9 9 7 4 3 2 1 2 2 3 5 6 7 7 8 9 9 10 10 11 12 12
7 7 7 7 7 7 4 4 5 5 4 4 7 9 10 10 11 12 13 12 12 12 12 11 10 9 9 11 13 15 17 22 27 30 30 30 29 27 25 26 24 21 21 21 20 19 19 17 15 14 13 12 12 12 12 12 11 11 10 9 9 8 8 7 7 5 3 1 1 1 2 4 5 6 7 8 9 9 10 11 11 11 12 13 13
6 7 7 7 8 8 5 5 7 8 6 6 7 9 9 10 10 11 12 13 13 13 13 12 12 11 10 12 16 19 21 23 26 29 29 28 27 27 26 27 27 25 23 22 19 18 18 16 15 14 13 12 12 12 12 12 11 11 10 10 9 8 6 5 4 3 2 1 1 3 4 5 6 7 8 9 10 11 11 11 11 12 12 13 13
6 7 7 7 8 9 6 5 8 10 8 7 8 9 10 10 12 13 14 14 13 13 13 12 12 12 12 15 18 21 23 25 27 28 27 26 26 26 26 26 26 24 22 20 19 18 17 15 14 13 12 12 12 12 12 12 11 10 10 9 8 7 5 4 3 3 1 1 2 5 6 7 7 8 9 10 10 11 12 12 12 13 12 13 14
6 6 6 6 7 9 8 5 7 10 9 8 9 10 10 11 14 16 17 15 14 14 14 14 14 16 19 21 22 23 25 26 26 26 25 24 24 25 25 24 22 20 19 20 19 18 16 14 13 13 12 12 12 12 11 11 11 11 10 10 8 7 6 5 4 2 1 2 3 6 7 7 8 9 10 11 12 12 12 12 13 12 12 14 14
6 5 5 6 7 8 8 6 7 9 9 9 9 10 10 13 15 16 16 16 16 16 16 17 19 22 26 28 27 26 28 28 27 26 26 26 27 27 26 22 19 18 20 22 21 18 16 14 13 12 12 12 12 12 12 12 11 11 10 9 7 5 4 4 2 3 3 3 4 6 7 8 9 10 11 13 13 13 12 12 12 11 11 11 11
5 6 7 6 5 6 6 5 6 8 8 9 9 10 11 13 15 16 16 16 15 17 20 23 26 28 31 32 31 31 31 31 30 30 30 29 27 23 21 19 17 16 19 22 21 17 15 14 13 12 13 13 13 13 12 11 11 9 8 6 4 2 1 0 2 4 4 4 5 7 8 10 11 13 14 14 13 12 12 12 11 11 10 9 9
5 6 7 6 4 4 4 5 6 6 6 7 8 9 11 13 14 14 15 15 14 17 24 30 32 32 33 33 32 32 32 31 31 31 30 26 20 16 16 17 17 17 18 19 18 15 14 14 14 14 15 15 14 13 12 10 9 8 7 5 3 1 0 1 3 4 4 6 8 9 10 13 15 16 15 14 13 13 13 12 11 10 10 9 8
5 7 8 6 2 3 3 4 5 6 6 6 6 8 11 12 12 12 14 16 17 21 27 31 33 32 31 31 31 31 32 32 31 29 25 20 16 15 16 16 16 16 16 17 17 16 15 15 15 16 17 17 16 14 11 9 7 5 4 2 2 1 2 3 5 6 8 9 10 11 13 15 17 17 15 13 13 13 11 9 9 9 9 8 8
6 7 8 6 3 1 1 3 5 5 5 5 6 7 9 11 12 13 15 18 23 27 30 31 31 31 32 32 31 32 32 32 29 25 22 19 18 19 19 18 18 18 18 19 18 16 15 16 17 17 17 16 14 12 9 7 5 4 2 1 1 2 2 3 6 10 12 12 13 14 16 17 17 16 15 13 11 9 7 8 10 9 8 7 8
6 6 7 6 5 3 1 1 3 5 6 6 6 7 8 9 12 15 18 22 26 30 31 31 31 33 33 33 31 30 29 28 25 24 24 25 24 23 23 23 22 20 19 17 16 15 15 17 18 18 16 14 11 9 7 5 4 3 2 2 3 3 4 5 9 12 14 14 15 17 18 18 17 15 13 12 10 7 7 9 10 9 8 7 8
7 7 6 6 6 6 4 2 3 5 6 6 7 7 7 8 12 17 21 24 28 31 32 32 33 34 35 33 31 29 27 26 26 26 27 26 25 23 23 22 20 17 16 15 16 17 18 18 17 14 12 10 8 6 5 3 3 3 3 4 5 7 8 10 12 14 14 14 16 17 17 17 17 14 11 11 10 9 8 8 9 9 7 7 7
7 8 7 5 6 6 5 4 4 4 5 6 6 7 6 8 13 19 23 25 28 32 33 33 34 35 35 32 29 27 27 28 28 27 26 24 22 20 19 18 17 18 19 21 21 20 18 16 13 11 9 7 4 3 2 2 4 5 6 7 8 11 12 12 13 14 14 15 16 16 16 16 15 12 11 10 10 9 8 8 8 8 7 7 8
5 7 7 6 6 6 6 6 5 4 5 6 6 7 8 10 14 19 22 24 26 29 30 32 32 32 32 30 27 27 28 28 27 25 24 22 21 20 20 21 23 24 24 22 20 17 15 12 10 7 5 3 2 1 2 4 6 8 9 10 11 12 13 12 13 14 15 16 15 16 16 15 14 13 12 11 9 8 8 8 7 6 7 7 7
6 6 4 3 4 4 4 4 4 4 6 7 7 8 10 13 17 19 22 24 26 27 29 31 31 30 30 29 29 28 28 27 25 24 23 23 23 24 25 25 25 24 21 18 16 13 11 8 6 4 1 1 2 3 5 7 8 9 10 11 11 11 11 12 13 14 16 16 16 15 15 14 13 13 12 9 7 6 6 7 7 6 7 7 7
8 8 6 5 4 5 5 5 6 7 9 9 10 10 12 16 19 21 24 27 30 31 32 32 32 32 32 30 29 27 27 26 26 26 26 27 27 27 26 24 22 19 17 14 12 9 7 4 2 1 3 4 4 6 7 9 10 10 10 10 11 11 11 13 14 15 15 16 15 15 13 12 12 11 10 7 5 5 6 7 7 6 6 7 7
8 8 8 8 9 10 12 12 13 15 16 16 17 19 21 24 26 28 30 32 34 34 33 33 32 32 31 29 29 28 27 27 27 27 27 28 27 25 22 20 18 15 12 10 7 5 3 1 1 4 5 6 6 8 9 10 10 10 10 10 11 11 12 13 15 15 15 15 14 13 12 11 10 9 6 5 5 6 7 7 7 6 6 7 7
13 14 15 16 17 18 19 20 21 23 24 25 27 31 33 34 35 36 36 37 36 35 34 34 33 31 30 29 30 29 28 27 27 27 27 26 24 22 20 18 16 12 9 7 4 3 2 3 4 6 7 7 8 9 10 10 10 11 11 11 11 12 14 15 15 15 15 14 13 12 11 9 7 5 4 4 5 6 7 7 6 5 6 7 8
21 21 22 22 21 20 21 22 23 26 28 31 35 39 40 39 39 39 38 38 38 37 35 34 33 32 31 31 31 30 30 29 28 27 27 25 23 21 19 17 14 11 9 7 6 4 4 4 6 7 7 8 9 10 10 11 11 11 11 12 12 14 15 16 16 16 14 13 12 11 9 7 5 4 4 5 6 7 8 8 7 6 6 7 8
Wind_Direction
290 278 273 266 257 248 239 240 245 247 245 244 246 246 246 248 250 252 249 247 248 245 240 242 242 236 235 235 231 227 225 224 221 223 230 234 233 232 229 233 244 245 238 236 233 233 236 236 236 240 243 247 251 254 255 256 261 265 265 271 277 275 273 274 278 282 281 279 283 283 282 291 294 294 305 312 312 314 324 329 322 321 316 311 317
289 279 274 266 256 245 235 239 244 244 241 242 243 243 243 243 243 247 250 247 245 244 237 234 237 238 235 235 232 228 226 225 225 223 229 235 234 231 228 229 238 241 237 237 235 230 232 236 238 241 240 246 250 249 251 254 258 264 268 276 280 269 265 274 279 279 278 277 276 268 270 285 293 288 293 302 302 312 331 329 323 318 306 314 329
291 286 279 268 255 242 237 240 243 240 237 239 240 239 239 238 235 238 246 247 242 239 235 232 235 239 238 234 230 229 226 225 230 228 227 234 232 228 226 227 234 240 239 241 241 236 234 237 243 244 242 250 254 246 246 254 257 262 268 272 270 262 264 276 278 276 279 279 269 251 260 276 281 283 293 303 306 327 337 325 324 320 311 331 335
291 290 283 273 257 243 240 242 244 239 234 236 238 234 230 230 232 234 238 241 239 237 232 228 232 238 237 232 229 228 224 225 231 232 229 232 232 227 226 225 228 236 240 242 243 242 240 240 244 248 250 255 253 244 247 258 262 264 268 268 264 262 268 271 265 261 265 271 264 248 260 277 281 285 303 322 321 328 330 323 326 322 319 343 324
290 288 284 276 261 248 242 242 242 236 229 230 232 230 227 227 230 232 232 235 237 237 234 229 230 233 233 232 231 229 228 229 232 233 229 230 231 228 225 226 227 233 241 245 245 245 244 242 243 248 252 255 253 250 255 263 268 267 264 262 261 263 267 261 257 259 259 261 261 263 274 283 280 289 315 336 330 330 336 342 340 331 335 360 329
292 287 282 276 264 252 246 243 239 231 224 225 227 227 227 228 229 229 229 232 233 234 235 233 231 233 231 231 231 231 233 233 233 233 229 228 230 229 226 226 229 233 238 244 248 248 247 246 246 247 250 253 255 258 263 267 271 269 260 259 257 254 252 252 259 265 265 268 270 274 283 286 283 297 309 326 346 339 345 358 350 334 336 359 325
292 286 278 275 267 255 248 244 242 236 228 226 226 228 228 228 228 228 227 229 229 230 231 231 233 235 232 229 230 231 234 234 233 234 231 228 230 232 230 228 230 232 234 240 247 249 246 247 249 250 252 254 257 264 268 269 269 262 254 257 255 246 244 250 257 257 255 270 281 280 283 284 287 295 309 342 359 334 337 9 353 322 319 338 314
293 288 277 271 269 261 252 247 247 247 241 233 231 231 230 228 229 229 229 230 231 232 233 232 234 236 232 229 230 230 234 236 234 234 234 231 231 233 233 232 232 234 235 238 244 244 243 245 248 251 256 258 261 266 267 264 262 253 249 249 243 239 242 241 241 246 251 266 277 269 264 275 289 299 318 338 336 321 332 355 343 316 313 318 308
291 289 279 269 266 265 258 252 250 249 246 240 236 233 232 232 232 233 234 233 234 236 236 234 234 234 231 230 231 230 232 234 234 235 235 233 232 233 233 234 235 237 238 241 244 242 242 245 247 250 256 259 262 263 260 257 253 240 239 246 243 238 236 225 223 249 266 266 262 252 245 266 283 291 307 314 311 318 333 339 332 321 309 303 295
292 288 282 271 264 263 260 255 251 248 245 243 240 236 233 233 234 236 236 234 232 233 235 235 233 231 230 230 230 229 229 230 232 235 235 233 233 232 233 234 236 238 241 244 246 246 245 245 246 249 256 259 258 258 257 256 250 233 228 237 238 227 224 228 242 261 266 255 246 240 239 264 281 289 301 309 314 324 328 325 324 320 312 306 296
297 291 288 280 269 262 259 257 253 248 244 243 243 241 237 234 234 234 234 232 228 227 229 231 230 229 228 230 229 228 229 228 230 234 234 233 234 234 234 235 236 238 240 242 244 246 244 243 244 248 254 256 254 255 254 248 238 230 226 223 221 224 234 244 252 257 250 236 236 239 247 265 280 291 302 308 315 318 318 321 323 322 321 315 305
301 297 294 290 280 267 259 256 255 250 245 243 242 242 239 236 234 232 230 228 224 223 225 227 229 228 229 233 233 230 229 229 230 233 232 232 234 234 235 236 236 238 241 241 242 243 239 238 240 241 240 239 235 234 231 225 221 222 225 227 229 237 243 239 233 233 232 237 247 249 252 268 285 286 281 294 312 318 320 323 322 323 324 317 308
303 301 299 295 289 277 263 256 254 251 249 246 243 241 239 236 235 233 231 227 223 222 225 228 230 227 227 232 233 231 230 230 231 232 231 232 233 233 235 237 238 239 241 239 238 236 230 229 232 232 226 218 212 208 207 212 218 220 228 237 238 238 237 229 223 220 217 227 243 243 239 241 256 268 274 294 338 339 331 324 316 322 326 316 306
303 300 300 297 291 282 268 256 252 251 250 249 246 243 239 236 235 233 231 229 226 223 226 229 229 227 226 229 232 232 232 232 233 231 230 232 234 233 234 235 236 237 238 236 232 225 218 220 227 230 224 213 205 198 195 200 204 205 215 223 222 224 226 225 224 224 224 224 219 226 235 230 225 248 273 311 354 320 311 308 299 303 311 304 303
303 298 297 296 291 284 272 257 250 251 251 249 247 243 240 236 235 235 234 231 227 225 226 228 227 226 227 227 230 233 233 232 233 230 228 231 233 232 231 230 229 230 229 227 222 217 217 221 224 223 214 206 201 197 196 196 189 190 200 205 208 220 227 227 224 222 224 220 212 225 240 240 235 250 278 305 297 281 284 285 287 295 302 296 296
301 297 293 293 292 288 279 265 254 252 252 250 245 241 240 236 233 235 236 232 229 229 231 232 230 228 229 229 231 233 233 232 232 228 227 230 231 228 226 223 223 220 216 213 212 213 216 217 214 210 204 200 200 200 201 195 184 184 191 201 220 230 231 229 223 225 229 223 226 241 248 248 254 269 293 310 310 301 303 299 294 303 306 290 277
301 297 293 291 289 286 281 270 258 253 251 249 245 241 239 236 230 230 235 235 234 235 235 236 236 233 231 230 229 231 232 233 231 226 225 228 228 224 218 214 212 207 203 205 208 209 209 208 205 202 197 195 196 200 199 188 182 183 176 180 210 223 227 229 218 217 231 234 234 243 246 252 272 295 309 318 320 323 335 292 292 305 302 287 280
302 300 298 294 287 281 277 268 259 253 248 246 245 244 241 237 229 228 234 237 237 237 238 238 236 232 229 227 226 227 231 232 229 225 224 226 223 217 209 202 201 199 200 204 204 200 196 195 196 194 191 190 193 195 189 177 177 181 167 157 168 180 199 222 226 218 223 234 247 258 274 293 310 319 320 320 320 319 288 232 262 303 301 286 289
304 304 304 297 288 280 270 260 255 253 249 245 243 242 240 235 228 226 231 234 235 237 238 234 228 225 223 222 221 224 229 232 229 225 223 222 217 209 201 198 201 203 202 198 192 188 186 187 189 187 183 186 189 188 182 172 173 176 162 159 166 162 165 174 184 185 173 173 234 289 313 320 322 321 319 319 319 316 288 255 236 188 297 297 292
303 302 302 294 284 279 269 257 251 249 250 248 242 239 237 234 229 227 227 228 229 230 226 221 219 219 219 220 221 224 228 231 229 226 222 217 211 203 200 203 205 204 200 191 184 183 185 185 182 178 179 184 187 188 182 172 167 165 163 171 178 171 165 165 164 169 173 190 249 290 311 319 325 325 321 323 324 319 298 266 236 200 178 310 310
299 296 293 287 282 278 269 259 250 245 246 245 242 239 236 230 226 222 219 220 221 219 216 215 217 217 217 221 224 225 227 228 230 227 220 214 209 204 204 207 206 199 193 187 184 184 183 180 176 173 177 184 185 186 185 179 174 175 180 187 191 190 193 206 212 209 207 217 281 11 18 10 6 348 332 326 319 306 293 272 246 222 195 206 267
301 296 291 289 286 279 270 264 251 241 240 239 237 236 230 224 219 214 213 215 216 216 216 215 214 214 215 219 222 224 226 229 232 228 218 211 207 203 203 205 205 200 193 187 184 184 181 178 175 172 174 180 181 180 185 188 191 197 198 204 215 218 218 220 208 178 151 134 128 121 104 85 68 32 345 326 316 313 333 3 17 15 18 4 311
303 298 291 291 290 283 275 269 251 237 235 233 230 227 223 217 214 212 213 214 215 217 217 216 216 216 217 220 224 227 229 229 229 224 215 210 208 203 201 201 202 201 196 190 186 184 178 175 172 170 171 175 176 178 184 191 201 211 208 209 212 208 201 194 179 165 159 161 164 153 129 111 100 76 9 338 352 21 33 29 26 20 12 4 357
300 296 286 290 296 292 280 264 246 235 232 226 221 221 221 216 213 211 210 211 212 214 217 220 223 223 223 229 231 229 228 228 227 221 213 208 206 202 199 196 195 193 191 189 186 181 176 174 171 168 168 170 173 178 183 186 192 195 194 195 194 189 184 181 177 171 167 165 162 153 153 156 153 145 127 68 35 31 28 21 17 14 7 359 355
301 293 282 286 298 300 290 271 252 242 236 225 219 222 224 221 217 213 209 209 212 213 218 224 228 228 233 239 234 224 223 229 229 219 208 202 199 195 192 188 185 183 182 182 180 175 173 171 167 163 164 167 171 175 173 170 170 174 175 171 166 166 165 161 157 148 139 137 139 146 161 165 148 124 83 57 41 26 18 14 7 4 4 358 348
308 303 291 285 292 302 302 288 262 245 241 227 218 223 227 226 224 219 213 212 215 219 226 231 233 235 241 245 239 227 224 231 225 208 200 198 193 187 182 176 172 174 177 176 173 169 167 166 162 158 158 161 164 166 161 154 150 151 150 146 144 148 148 143 140 135 134 137 138 137 138 134 114 82 56 52 47 25 12 15 4 351 349 345 338
314 311 295 281 292 309 310 295 262 233 233 224 217 222 226 225 224 221 217 217 219 225 231 233 230 228 228 234 240 233 225 227 211 194 192 192 185 175 171 167 166 170 174 171 166 163 162 159 156 155 154 155 159 154 140 134 134 135 136 139 143 146 143 141 142 142 141 140 138 137 135 118 83 56 49 48 32 360 359 3 349 333 332 334 337
312 310 299 285 296 316 312 297 263 222 217 217 215 217 219 221 222 220 218 218 220 223 225 221 213 208 212 226 237 227 217 218 202 187 184 180 172 166 165 163 164 169 171 167 162 161 160 156 153 154 157 156 149 134 125 129 133 135 138 142 143 137 132 135 141 143 141 139 139 138 123 98 74 53 56 21 325 324 337 338 327 324 328 330 329
311 311 309 306 309 325 326 308 273 225 209 207 208 211 213 215 218 219 219 218 217 219 218 212 211 216 225 237 240 226 215 209 194 182 175 170 168 167 164 162 164 169 170 166 163 162 159 156 156 159 159 153 140 129 130 135 137 139 141 138 130 123 121 126 131 135 134 133 132 126 108 99 92 95 238 271 296 299 304 320 330 329 327 326 321
307 306 313 322 323 331 338 317 288 248 216 210 210 213 216 218 217 218 221 220 220 224 222 217 219 225 235 242 238 229 222 203 183 173 169 169 169 165 161 162 165 166 165 166 167 165 161 159 161 160 156 149 143 140 142 141 140 142 138 128 125 127 129 132 136 137 135 131 126 121 121 141 221 280 264 278 298 300 300 315 328 326 321 320 313
301 300 313 326 327 325 323 309 310 176 180 190 196 205 216 221 219 216 217 218 217 217 216 214 215 220 232 238 230 223 217 193 176 170 168 168 166 162 161 164 165 165 165 166 166 165 164 163 161 156 152 151 149 148 149 147 146 146 140 135 139 142 141 146 147 141 133 128 127 130 140 189 262 287 285 291 308 315 308 311 317 315 312 311 306
295 298 312 325 330 326 299 277 215 132 147 169 188 202 214 219 216 211 210 210 208 206 207 211 214 217 224 229 223 216 204 185 176 172 169 166 164 163 163 163 164 166 168 168 165 165 166 165 161 155 154 156 154 151 152 151 150 149 146 148 149 146 151 161 153 140 138 145 148 178 246 273 281 296 310 311 313 319 316 312 311 309 307 305 303
302 307 315 324 334 333 302 257 217 162 144 173 199 211 219 222 218 213 207 203 202 206 210 214 218 217 212 211 213 209 193 180 178 176 172 169 167 164 161 162 164 166 168 170 168 164 163 164 161 158 158 158 154 153 154 153 152 151 151 153 151 153 167 165 145 134 153 162 147 187 276 304 304 310 319 319 317 317 314 310 310 309 307 306 304
305 311 314 312 323 332 315 260 234 212 190 194 205 207 210 215 216 213 209 206 204 207 210 209 207 209 207 202 200 195 185 179 179 177 174 171 169 163 159 161 164 166 168 169 166 160 160 162 161 159 158 156 153 154 153 151 152 153 152 151 153 162 165 146 125 129 162 157 102 264 289 314 319 320 321 319 317 316 312 311 312 310 307 306 305
302 312 312 305 312 324 317 267 246 231 209 197 206 206 203 204 208 209 212 214 210 204 201 197 195 199 202 192 184 181 180 179 178 175 172 168 164 161 161 162 164 165 166 164 160 159 161 160 157 156 155 153 153 154 152 152 154 153 150 149 154 161 154 130 129 168 179 150 261 279 307 326 325 322 319 317 315 314 312 312 311 307 307 306 303
296 304 304 296 303 315 314 275 246 236 220 206 212 215 209 206 209 210 211 214 212 205 197 190 185 185 180 172 171 175 178 175 170 166 164 161 160 162 163 164 163 164 162 159 158 159 159 156 154 154 153 152 154 153 152 153 152 150 151 151 149 148 142 141 172 199 187 22 292 301 323 330 322 316 315 314 314 314 312 310 307 305 302 299 296
298 301 298 288 291 298 297 276 241 230 223 216 216 219 217 212 212 213 212 210 208 204 195 184 177 172 167 164 167 170 167 161 157 156 156 158 161 164 166 164 162 161 161 159 157 156 156 156 155 153 151 152 151 150 151 153 151 150 152 150 146 150 166 182 197 219 339 334 305 310 320 321 316 315 316 315 314 313 310 306 304 303 300 298 301
286 274 268 274 287 290 284 266 234 224 222 216 212 218 225 220 212 211 212 209 205 198 187 177 173 169 162 158 159 159 154 151 152 154 156 159 163 166 168 166 161 160 164 164 160 155 154 156 154 151 150 149 148 148 148 148 149 151 151 149 151 165 184 202 248 326 350 340 313 311 313 315 315 314 316 316 314 311 308 305 303 303 302 303 305
273 261 252 256 285 298 285 254 227 214 213 216 216 219 224 221 216 214 213 209 202 191 179 171 168 166 162 159 158 157 155 153 155 157 157 160 163 164 163 161 159 160 165 167 163 154 150 150 148 145 145 145 144 145 144 144 146 149 146 145 154 161 146 215 302 324 331 316 305 306 310 314 315 317 319 319 313 307 304 303 302 301 300 299 298
266 258 245 236 270 311 295 247 220 197 194 215 224 220 218 220 219 215 208 199 189 179 173 170 168 168 166 163 160 160 159 157 157 158 157 157 158 159 158 158 158 158 161 161 157 150 145 147 149 151 152 149 144 142 142 143 147 149 144 143 156 173 226 259 276 296 306 306 308 313 318 318 319 321 321 315 308 306 306 305 304 302 299 299 299
252 250 244 236 261 340 320 244 213 184 178 196 208 209 214 217 216 212 204 193 179 171 171 171 170 168 165 162 162 164 163 158 155 154 153 151 153 157 157 155 151 151 153 153 151 151 154 159 162 164 162 155 148 144 141 139 138 139 138 139 157 223 274 279 287 300 310 315 316 319 320 319 318 319 317 309 306 309 311 307 301 298 296 299 298
234 241 242 231 205 56 359 235 202 176 168 178 187 200 212 215 214 213 204 189 177 173 173 172 169 165 162 162 164 163 160 155 152 150 147 145 146 147 146 146 146 149 156 161 164 169 172 169 165 160 155 150 145 141 137 132 130 129 136 174 217 258 276 281 294 308 319 324 322 321 321 320 320 320 318 315 314 312 302 293 292 291 291 294 295
220 229 236 225 199 163 107 177 187 172 165 171 187 202 211 211 207 202 194 186 182 180 176 173 168 164 162 162 161 158 155 154 152 147 143 143 145 147 151 155 158 161 166 172 175 173 165 158 152 148 145 144 141 135 132 134 141 149 181 229 251 270 276 283 296 309 318 321 320 319 319 319 320 319 313 307 303 296 287 288 292 292 291 292 296
212 218 226 226 212 195 167 151 180 183 178 185 201 210 212 205 194 189 189 190 188 183 178 175 173 168 160 153 148 145 147 149 149 146 145 148 151 156 160 163 165 165 162 158 153 148 144 142 140 137 136 135 134 134 142 166 195 218 243 260 274 284 290 295 302 309 315 318 318 318 317 317 319 317 306 296 293 291 286 286 288 289 289 291 297
198 202 205 211 217 212 194 177 176 175 177 190 201 202 198 192 185 184 185 186 183 177 173 169 166 160 153 148 144 143 146 147 146 145 146 149 152 154 156 157 154 149 142 138 136 134 132 129 127 127 127 128 130 143 181 243 273 282 282 280 283 290 297 303 307 311 315 317 317 317 316 315 312 304 294 286 285 285 284 284 286 291 294 294 296
181 193 200 203 211 220 216 202 186 169 176 191 193 182 175 178 181 180 178 175 171 164 156 150 148 147 147 148 147 144 143 142 140 139 141 144 146 145 145 142 139 135 132 130 129 126 123 122 122 121 123 132 150 251 289 296 297 294 290 287 287 292 300 306 310 313 316 318 318 317 314 310 302 294 287 280 276 280 289 291 290 292 292 291 293
170 164 162 174 194 206 210 199 173 152 153 160 163 162 163 166 169 167 162 157 152 145 139 138 139 138 138 138 136 134 134 135 134 135 137 138 137 136 135 132 129 127 125 124 123 121 119 120 120 120 136 226 278 293 297 298 297 295 292 292 294 299 305 309 313 317 318 318 318 316 310 303 295 287 282 278 278 287 296 294 288 289 291 293 296
147 142 137 143 154 146 134 127 123 122 126 131 135 137 141 145 147 146 142 138 135 133 131 131 130 127 126 126 126 128 130 130 130 132 133 132 131 131 129 127 125 123 121 120 118 116 113 109 105 269 275 280 286 287 290 295 296 295 295 298 301 305 309 312 316 319 319 318 316 314 308 300 288 278 275 279 286 288 284 279 279 284 293 297 299
134 134 131 124 114 108 105 103 103 105 108 111 115 118 121 124 128 129 129 130 130 129 127 124 121 121 121 122 122 124 126 127 128 128 128 127 128 128 127 125 123 119 114 110 108 108 112 127 267 278 278 279 279 283 289 295 297 299 301 303 304 308 312 315 318 319 319 317 315 311 305 295 285 279 280 285 288 287 284 282 285 294 299 297 298
101 101 100 100 99 98 98 99 102 106 108 110 114 119 122 122 122 122 123 124 124 124 123 123 122 123 124 125 126 127 128 128 128 128 129 131 133 133 132 132 131 127 127 136 149 165 190 235 265 274 277 278 280 285 292 298 300 301 304 304 306 312 316 317 318 319 318 317 314 311 304 293 285 286 289 286 283 284 285 285 289 296 295 292 293
90 91 92 94 94 95 96 99 104 109 112 115 119 122 122 121 121 122 122 123 124 125 127 128 128 129 130 132 133 135 136 136 137 138 139 139 137 134 135 139 143 149 161 176 189 201 226 255 271 275 277 280 284 290 296 300 301 302 303 306 310 314 316 317 318 319 319 318 315 310 305 298 289 286 286 282 272 266 269 278 289 293 289 289 292